STARLINK-5725, 55605

Orbit data source: Space-Track

STARLINK-5725, 55605 is a payload satellite owned by SpaceX/Seattle (US) in LEO that was launched on Sun, 12 Feb 2023 UTC via an FALCON 9 launch vehicle from the Air Force Eastern Test Range (AFETR). Payload-class satellites include a variety of spacecraft equipped with specific instruments for various scientific and technological missions. These include communications satellites like Starlink; space stations such as the ISS; scientific satellites like the Hubble; Earth observation satellites from companies like Planet Labs, Umbra, and HawkEye 360; GPS; miniature CubeSats for education and research; and military/defense satellites.

Loading next visibility...
Identifier
55605, 2023-020AN
Orbit
LEO
Country
Flag of USUS
Related business
Manufacturer
SpaceX/Seattle
Mission
Operational Commercial Communications
Bus & Motor
STARLINK, Unknown motor
Mass
305 kg wet, ~290 kg dry
Launch date (UTC)
2023-02-12 (4 years ago)
Launch vehicle
FALCON 9
Launch site
Air Force Eastern Test Range (AFETR)
Object type
Payload
Rocket body
Debris
Shape & HBR
Box + 1 Pan, 10.1 m
Radar Cross Section
13.562 m², Large (>1 m²)

Expand to show TLE details & history
Last TLE update: 15 hours ago

TLE from 15 hours ago
0 STARLINK-5725
1 55605U 23020AN  26263.89135535 -.00000472  00000-0 -76130-5 0  9993
2 55605  43.0057 331.7695 0001431 275.1435  84.9253 15.27577263198893
Epoch: 2026-09-20T21:23Z
TLE epoch observation values (Epoch: 2026-09-20T21:23:33.102Z)
Latitude
-0.00003°
Longitude
11.10251°
Altitude
482.747 km
Speed
7.626 km/s
True Right ascension
22h 07m 04s
True Declination
0° 00' 00"
Sunlit
Object was in full shadow at epoch
Visualization orbit readout
Latitude
Unknown
Longitude
Unknown
Altitude
Unknown
Speed
Unknown
Apparent Right ascension
Unknown
Apparent Declination
Unknown
Sunlit
N/A
Visualization observer readout
Local Sidereal Time
04:58:40
Azimuth
Unknown
Elevation
Unknown
Doppler factor
Unknown
Orbital elements
Apogee altitude
485.984 km
Perigee altitude
484.019 km
Semi-major axis
6,863.139 km
Eccentricity
0.00014
Inclination
43.0057°
RAAN
331.7695°
Arg. of periapsis
275.1435°
True anomaly
84.94163°
Mean anomaly
84.9253°
Eccentric anomaly
84.93347°
Mean motion
3.81732 °/min
Orbital period
94.31 mins
BSTAR
-0.000007613
Loading maneuver chart data...
Computing Atmospheric mass density...
Loading historical data...
Loading historical data...
Loading historical data...
Loading historical data...
Loading historical data...
Loading historical data...
Loading historical data...

Documentation

Showing up to 5 results
|